Weather History for Limon, CO

Change the Weather History Date:

Sunday, December 23, 2012

  Actual Average Record
Temperature  
Mean Temperature 27 °F -  
Max Temperature 47 °F - 60 °F (2005)
Min Temperature 7 °F - -20 °F (2004)
Degree Days  
Heating Degree Days 38    
Month to date heating degree days 849  
Cooling Degree Days 0    
Month to date cooling degree days 0  
Moisture  
Dew Point 11 °F    
Average Humidity 62    
Maximum Humidity 88    
Minimum Humidity 31    
Precipitation  
Precipitation 0.00 in - 0.03 in (2008)
Month to date precipitation 0.20  
Year to date precipitation 9.71  
Sea Level Pressure  
Sea Level Pressure 29.99 in    
Wind  
Wind Speed 5 mph (North)    
Max Wind Speed 22 mph    
Max Gust Speed 25 mph    
Visibility 10 miles    
Events      
T = Trace of Precipitation, MM = Missing Value Source: NWS Daily Summary

Daily Weather History Graph

Daily Weather History Graph

Search for Another Location

Airport:

Trip Planner

Search our weather history database for the weather conditions in past years. The results will help you decide how hot, cold, wet, or windy it might be!

Date:

Astronomy

Dec. 23, 2012 Rise Set
Actual Time 7:11 AM MST 4:36 PM MST
Civil Twilight 6:41 AM MST 5:06 PM MST
Nautical Twilight 6:08 AM MST 5:40 PM MST
Astronomical Twilight 5:35 AM MST 6:12 PM MST
Moon 1:27 PM MST (12/23) 2:57 AM MST (12/23)
Length of Visible Light 10h 24m
Length of Day
9h 24m
Waxing Gibbous, 82% of the Moon is Illuminated
Dec 23
Waxing Gibbous
Dec 28
Full
Jan 4
Last Quarter
Jan 11
New
Jan 18
First Quarter

Hourly Weather History & Observations

Time (MST) Temp. Windchill Dew Point Humidity Pressure Visibility Wind Dir Wind Speed Gust Speed Precip Events Conditions
12:55 AM 30.0 °F - 8.1 °F 40% 29.88 in 10.0 mi Calm Calm - N/A   Clear
1:55 AM 21.9 °F 15.7 °F 6.1 °F 51% 29.91 in 10.0 mi North 4.6 mph - N/A   Clear
2:55 AM 16.0 °F - 3.9 °F 59% 29.93 in 10.0 mi Calm Calm - N/A   Clear
3:55 AM 8.1 °F -4.3 °F 1.9 °F 76% 29.97 in 10.0 mi North 8.1 mph - N/A   Clear
4:55 AM 8.1 °F -3.2 °F 1.9 °F 76% 29.99 in 10.0 mi North 6.9 mph - N/A   Clear
5:55 AM 10.0 °F -4.5 °F 1.9 °F 70% 29.99 in 10.0 mi North 11.5 mph - N/A   Clear
6:55 AM 12.9 °F 2.6 °F 3.0 °F 65% 30.01 in 10.0 mi NW 6.9 mph - N/A   Clear
7:55 AM 25.0 °F 18.1 °F 7.0 °F 46% 30.00 in 10.0 mi WNW 5.8 mph - N/A   Clear
8:55 AM 33.1 °F 26.1 °F 10.0 °F 38% 30.00 in 10.0 mi WNW 8.1 mph - N/A   Clear
9:55 AM 39.9 °F 36.7 °F 12.9 °F 33% 29.92 in 10.0 mi West 4.6 mph - N/A   Clear
11:55 AM 46.0 °F 43.1 °F 17.1 °F 31% 29.87 in 10.0 mi NE 5.8 mph - N/A   Clear
12:55 PM 43.0 °F 36.4 °F 14.0 °F 31% 29.88 in 10.0 mi NNE 12.7 mph - N/A   Clear
1:55 PM 42.1 °F 34.2 °F 19.0 °F 40% 29.94 in 10.0 mi North 16.1 mph - N/A   Clear
2:55 PM 43.0 °F 35.7 °F 19.0 °F 38% 29.95 in 10.0 mi North 15.0 mph 24.2 mph N/A   Clear
3:55 PM 39.0 °F 33.4 °F 21.0 °F 49% 30.02 in 10.0 mi NNE 8.1 mph - N/A   Clear
4:55 PM 30.9 °F - 19.9 °F 64% 30.07 in 10.0 mi Calm Calm - N/A   Clear
5:55 PM 21.9 °F 17.2 °F 17.1 °F 82% 30.13 in 10.0 mi North 3.5 mph - N/A   Clear
6:55 PM 18.0 °F 11.1 °F 15.1 °F 88% 30.13 in 10.0 mi NNW 4.6 mph - N/A   Clear
7:55 PM 16.0 °F - 12.9 °F 88% 30.10 in 10.0 mi Calm Calm - N/A   Clear
8:55 PM 12.9 °F 6.9 °F 10.0 °F 88% 30.07 in 10.0 mi NNW 3.5 mph - N/A   Clear
9:55 PM 12.0 °F 2.7 °F 9.0 °F 88% 30.04 in 10.0 mi North 5.8 mph - N/A   Clear
10:55 PM 10.9 °F 2.9 °F 8.1 °F 88% 30.05 in 10.0 mi North 4.6 mph - N/A   Clear
11:55 PM 10.9 °F 2.9 °F 8.1 °F 88% 30.03 in 10.0 mi North 4.6 mph - N/A   Clear